Regional Weather Roundup
Issued by NWS

Home | Current Version | Previous Version | Graphics & Text | Print | Product List | Glossary On
Versions: 1 2 3 4 5 6 7 8 9 10 11 12 13 14 15 16 17 18 19 20 21 22 23 24 25 26 27 28 29 30 31 32 33 34 35 36 37 38 39 40 41 42 43 44 45 46 47 48 49 50
000
ASUS43 KBIS 291659
RWRND

NORTH DAKOTA REGIONAL WEATHER ROUNDUP
NATIONAL WEATHER SERVICE BISMARCK ND
1200 PM CDT FRI AUG 29 2014

NOTE: "FAIR" INDICATES FEW OR NO CLOUDS BELOW 12,000 FEET WITH NO
SIGNIFICANT WEATHER AND/OR OBSTRUCTIONS TO VISIBILITY.


NDZ001>003-009>011-017-291800-
NORTHWEST NORTH DAKOTA

CITY           SKY/WX    TMP DP  RH WIND       PRES   REMARKS
WILLISTON      PTSUNNY   68  55  63 N17       29.99R
MINOT          PTSUNNY   67  56  67 N14       29.90R
$$

NDZ018>021-031>035-040>046-291800-
SOUTHWEST NORTH DAKOTA

CITY           SKY/WX    TMP DP  RH WIND       PRES   REMARKS
BISMARCK       PTSUNNY   70  59  68 NW16G26   29.88R
GARRISON         N/A     64  61  90 N12G21    29.90R
HETTINGER ARPT CLOUDY    66  55  67 NW16G26   29.97R
$$

NDZ004>008-012>016-024-026-027-054-291800-
NORTHEAST NORTH DAKOTA

CITY           SKY/WX    TMP DP  RH WIND       PRES   REMARKS
GRAND FORKS    CLOUDY    68  64  87 S7        29.76S
DEVILS LAKE    PTSUNNY   70  61  73 N9        29.77R
$$

NDZ022-023-025-028>030-036>039-047>053-291800-
SOUTHEAST NORTH DAKOTA

CITY           SKY/WX    TMP DP  RH WIND       PRES   REMARKS
FARGO          CLOUDY    69  64  84 SW3       29.76S
$$




USA.gov is the U.S. government's official web portal to all federal, state and local government web resources and services.